Weather History for KSAF - March, 2013

Change the Weather History Date:

Saturday, March 2, 2013

  Actual Average Record
Temperature  
Mean Temperature 40 °F -  
Max Temperature 59 °F 0 °F 71 °F (2009)
Min Temperature 21 °F - 6 °F (2002)
Degree Days  
Heating Degree Days 25    
Moisture  
Dew Point 17 °F    
Average Humidity 43    
Maximum Humidity 72    
Minimum Humidity 20    
Precipitation  
Precipitation 0.00 in - - ()
Sea Level Pressure  
Sea Level Pressure 30.27 in    
Wind  
Wind Speed 4 mph (North)    
Max Wind Speed 13 mph    
Max Gust Speed 16 mph    
Visibility 10 miles    
Events      
Averages and records for this station are not official NWS values.
T = Trace of Precipitation, MM = Missing Value Source: NWS Daily Summary

Daily Weather History Graph

Daily Weather History Graph

Search for Another Location

Airport or City:

Trip Planner

Search our weather history database for the weather conditions in past years. The results will help you decide how hot, cold, wet, or windy it might be!

Date:

Astronomy

Mar. 02, 2013 Rise Set
Actual Time 6:32 AM MST 6:00 PM MST
Civil Twilight 6:06 AM MST 6:26 PM MST
Nautical Twilight 5:37 AM MST 6:55 PM MST
Astronomical Twilight 5:07 AM MST 7:25 PM MST
Moon 11:30 PM MST (3/2) 9:14 AM MST (3/2)
Length of Visible Light 12h 19m
Length of Day
11h 28m
Waning Gibbous, 73% of the Moon is Illuminated
Mar 2
Waning Gibbous
Mar 4
Last Quarter
Mar 11
New
Mar 19
First Quarter
Mar 27
Full

Hourly Weather History & Observations

Time (MST) Temp. Windchill Dew Point Humidity Pressure Visibility Wind Dir Wind Speed Gust Speed Precip Events Conditions
12:53 AM 30.0 °F - 15.1 °F 54% 30.31 in 10.0 mi Calm Calm - N/A   Clear
1:53 AM 30.0 °F - 16.0 °F 56% 30.32 in 10.0 mi Calm Calm - N/A   Clear
2:53 AM 27.0 °F 21.6 °F 16.0 °F 63% 30.32 in 10.0 mi NE 4.6 mph - N/A   Clear
3:53 AM 24.1 °F 19.7 °F 15.1 °F 69% 30.33 in 10.0 mi NNE 3.5 mph - N/A   Clear
4:53 AM 21.9 °F 14.5 °F 14.0 °F 72% 30.35 in 10.0 mi NNE 5.8 mph - N/A   Clear
5:53 AM 28.0 °F 24.2 °F 16.0 °F 61% 30.35 in 10.0 mi ENE 3.5 mph - N/A   Clear
6:53 AM 23.0 °F - 15.1 °F 72% 30.41 in 10.0 mi Calm Calm - N/A   Clear
7:53 AM 32.0 °F 27.5 °F 18.0 °F 56% 30.40 in 10.0 mi NNE 4.6 mph - N/A   Clear
8:53 AM 41.0 °F 35.8 °F 19.0 °F 41% 30.38 in 10.0 mi North 8.1 mph - N/A   Clear
9:53 AM 45.0 °F 38.9 °F 18.0 °F 34% 30.35 in 10.0 mi North 12.7 mph - N/A   Clear
10:53 AM 48.9 °F - 18.0 °F 29% 30.33 in 10.0 mi NNE 12.7 mph 16.1 mph N/A   Clear
11:53 AM 52.0 °F - 18.0 °F 26% 30.32 in 10.0 mi Variable 6.9 mph - N/A   Clear
12:53 PM 55.0 °F - 18.0 °F 23% 30.24 in 10.0 mi WSW 11.5 mph - N/A   Clear
1:53 PM 55.0 °F - 17.1 °F 23% 30.22 in 10.0 mi West 5.8 mph - N/A   Clear
2:53 PM 55.9 °F - 17.1 °F 22% 30.21 in 10.0 mi SW 6.9 mph - N/A   Clear
3:53 PM 57.9 °F - 17.1 °F 20% 30.19 in 10.0 mi WSW 4.6 mph - N/A   Clear
4:53 PM 59.0 °F - 17.1 °F 20% 30.18 in 10.0 mi Calm Calm - N/A   Clear
6:53 PM 48.0 °F - 17.1 °F 29% 30.20 in 10.0 mi East 8.1 mph - N/A   Clear
7:53 PM 42.1 °F 40.2 °F 17.1 °F 37% 30.19 in 10.0 mi NNW 3.5 mph - N/A   Clear
8:53 PM 39.0 °F 35.7 °F 19.0 °F 45% 30.18 in 10.0 mi NNW 4.6 mph - N/A   Clear
9:53 PM 39.9 °F 34.5 °F 19.0 °F 43% 30.16 in 10.0 mi ENE 8.1 mph - N/A   Clear
10:53 PM 39.9 °F - 19.0 °F 43% 30.14 in 10.0 mi Calm Calm - N/A   Clear
11:53 PM 34.0 °F 31.0 °F 17.1 °F 50% 30.14 in 10.0 mi North 3.5 mph - N/A   Clear